CW6668 Weather Reports


time (UTC)temp
C
wind
direction
speed
KPH
gust
KPH
rain 1hr
cm
rain 24hr
cm
rain mn
cm
humidity
%
barometer
mb
20260505140108 22 273 3.2 11.3 0.00 0.00 0.00 53 1012.0
20260505124537 18 227 4.8 14.5 0.00 0.00 0.00 55 1012.5
20260505123046 17 184 3.2 11.3 0.00 0.00 0.00 57 1012.5
20260505121527 17 252 4.8 14.5 0.00 0.00 0.00 58 1012.4
20260505120022 16 265 6.4 14.5 0.00 0.00 0.00 59 1012.3
20260505114518 16 250 8.0 16.1 0.00 0.00 0.00 60 1012.3
20260505113016 16 273 3.2 16.1 0.00 0.00 0.00 60 1012.2
20260505111515 16 163 9.7 22.5 0.00 0.00 0.00 60 1012.0
20260505101503 15 215 4.8 20.9 0.00 0.00 0.00 62 1011.2
20260505100002 15 274 4.8 16.1 0.00 0.00 0.00 63 1011.3
20260505094559 15 227 4.8 16.1 0.00 0.00 0.00 63 1011.3
20260505093059 15 173 4.8 16.1 0.00 0.00 0.00 64 1011.1
20260505091559 15 210 4.8 16.1 0.00 0.00 0.00 64 1011.1
20260505090058 15 171 4.8 14.5 0.00 0.00 0.00 64 1011.1
20260505084603 15 193 3.2 14.5 0.00 0.00 0.00 64 1011.3
20260505083108 15 219 4.8 14.5 0.00 0.00 0.00 64 1011.2
20260505081554 15 200 3.2 20.9 0.00 0.00 0.00 65 1011.1
20260505080100 16 279 1.6 11.3 0.00 0.00 0.00 65 1011.1
20260505074550 16 158 3.2 9.7 0.00 0.00 0.00 65 1011.0
20260505073057 15 178 3.2 11.3 0.00 0.00 0.00 66 1010.9
20260505071549 15 144 1.6 14.5 0.00 0.00 0.00 66 1010.9
20260505070050 15 212 3.2 8.0 0.00 0.00 0.00 68 1010.8
20260505064614 15 155 1.6 8.0 0.00 0.00 0.00 69 1010.7
20260505063045 15 169 3.2 6.4 0.00 0.00 0.00 69 1010.8
20260505061544 13 128 3.2 6.4 0.00 0.00 0.00 74 1011.0
20260505060042 13 133 3.2 6.4 0.00 0.00 0.00 73 1011.0
20260505054547 14 133 1.6 4.8 0.00 0.00 0.00 71 1010.9
20260505053036 15 196 0.0 3.2 0.00 0.00 0.00 70 1010.8
20260505051533 16 196 0.0 4.8 0.00 0.00 0.00 66 1010.9
20260505041531 17 216 1.6 8.0 0.00 0.00 0.00 59 1011.1
20260505040031 17 180 3.2 12.9 0.00 0.00 0.00 58 1011.0
20260505034533 18 237 4.8 16.1 0.00 0.00 0.00 56 1010.9
20260505033030 18 175 1.6 14.5 0.00 0.00 0.00 55 1010.9
20260505031527 18 198 3.2 17.7 0.00 0.00 0.00 54 1011.0
20260505030041 18 183 3.2 12.9 0.00 0.00 0.00 53 1011.0
20260505024526 18 201 1.6 12.9 0.00 0.00 0.00 52 1010.9
20260505023027 19 184 3.2 11.3 0.00 0.00 0.00 49 1010.9
20260505021525 19 246 1.6 12.9 0.00 0.00 0.00 49 1010.9
20260505020024 20 190 1.6 8.0 0.00 0.00 0.00 48 1010.8
20260505014525 20 159 3.2 11.3 0.00 0.00 0.00 47 1010.5
20260505013023 20 140 4.8 12.9 0.00 0.00 0.00 47 1010.5
20260505011523 20 223 3.2 9.7 0.00 0.00 0.00 46 1010.2
20260505010021 20 214 3.2 17.7 0.00 0.00 0.00 45 1010.1
20260505004533 21 133 3.2 17.7 0.00 0.00 0.00 44 1010.1
20260505003019 21 132 3.2 9.7 0.00 0.00 0.00 44 1010.0
20260505001519 21 138 4.8 14.5 0.00 0.00 0.00 43 1009.9
20260505000019 21 224 6.4 22.5 0.00 0.00 0.00 41 1010.0
20260504234520 22 327 1.6 16.1 0.00 0.00 0.00 41 1009.8
20260504233021 22 180 6.4 22.5 0.00 0.00 0.00 40 1009.7
20260504231516 22 184 6.4 19.3 0.00 0.00 0.00 39 1009.7
20260504230016 22 103 6.4 38.6 0.00 0.00 0.00 38 1009.6
20260504224515 23 171 3.2 27.4 0.00 0.00 0.00 37 1009.7
20260504223015 23 219 11.3 25.7 0.00 0.00 0.00 35 1009.6
20260504221514 22 103 8.0 22.5 0.00 0.00 0.00 37 1009.7
20260504220014 23 201 9.7 35.4 0.00 0.00 0.00 35 1009.5
20260504214512 24 154 6.4 16.1 0.00 0.00 0.00 34 1009.5
20260504213029 24 288 9.7 22.5 0.00 0.00 0.00 35 1009.5
20260504211514 24 199 9.7 22.5 0.00 0.00 0.00 33 1009.4
20260504210010 24 279 6.4 22.5 0.00 0.00 0.00 33 1009.6
20260504204511 24 286 6.4 27.4 0.00 0.00 0.00 34 1009.6
20260504203008 24 220 8.0 17.7 0.00 0.00 0.00 34 1009.8
20260504201506 24 161 9.7 20.9 0.00 0.00 0.00 34 1010.0
20260504200007 23 255 6.4 22.5 0.00 0.00 0.00 35 1010.3
20260504194505 24 196 6.4 20.9 0.00 0.00 0.00 33 1010.4
20260504193100 24 187 8.0 16.1 0.00 0.00 0.00 35 1010.6
20260504191621 23 267 9.7 24.1 0.00 0.00 0.00 34 1010.8
20260504190058 23 203 4.8 22.5 0.00 0.00 0.00 35 1011.2
20260504184600 23 199 11.3 24.1 0.00 0.00 0.00 35 1011.5
20260504183048 23 241 8.0 22.5 0.00 0.00 0.00 37 1011.8
20260504181545 22 226 12.9 29.0 0.00 0.00 0.00 36 1012.0
20260504180043 22 192 4.8 19.3 0.00 0.00 0.00 35 1012.3
20260504174540 22 293 6.4 22.5 0.00 0.00 0.00 37 1012.5
20260504173039 21 254 8.0 19.3 0.00 0.00 0.00 38 1012.6
20260504171540 21 282 4.8 22.5 0.00 0.00 0.00 35 1012.9